contact:dominique.lefevre@mio.osupytheas.fr, maurice.libes@osupytheas.fr, didier.mallarino@osupytheas.fr
Project:EMSO http://www.emso-fr.org/EMSO-France
Depth: 2436.0 m
Title:EMSO Ligure Ouest : Data MII capteur MICROCAT
DateTime_Computer,Latitude,Longitude,Temperature,Conductivity,Pressure,DateTime_Instrument
DateTime_Computer,Latitude,Longitude,degC,S m-1,dbar,DateTime_Instrument
2022-03-12T00:00:23Z,42.805,6.029,13.3007,4.60033,2470.591,2022-3-12T02:01:58Z
2022-03-12T00:03:26Z,42.805,6.029,13.3000,4.60032,2470.553,2022-3-12T02:05:01Z
2022-03-12T00:06:29Z,42.805,6.029,13.2997,4.60032,2470.553,2022-3-12T02:08:04Z
2022-03-12T00:09:32Z,42.805,6.029,13.2999,4.60032,2470.577,2022-3-12T02:11:08Z
2022-03-12T00:12:35Z,42.805,6.029,13.3000,4.60032,2470.614,2022-3-12T02:14:11Z
2022-03-12T00:15:38Z,42.805,6.029,13.2998,4.60032,2470.577,2022-3-12T02:17:14Z
2022-03-12T00:18:41Z,42.805,6.029,13.3001,4.60033,2470.6,2022-3-12T02:20:17Z
2022-03-12T00:21:44Z,42.805,6.029,13.2996,4.60031,2470.553,2022-3-12T02:23:20Z
2022-03-12T00:24:48Z,42.805,6.029,13.3001,4.60033,2470.553,2022-3-12T02:26:23Z
2022-03-12T00:27:51Z,42.805,6.029,13.3000,4.60031,2470.591,2022-3-12T02:29:26Z
2022-03-12T00:30:54Z,42.805,6.029,13.3002,4.60031,2470.614,2022-3-12T02:32:29Z
2022-03-12T00:33:57Z,42.805,6.029,13.3000,4.60033,2470.591,2022-3-12T02:35:33Z
2022-03-12T00:37:00Z,42.805,6.029,13.3000,4.60031,2470.577,2022-3-12T02:38:36Z
2022-03-12T00:40:03Z,42.805,6.029,13.2999,4.60033,2470.567,2022-3-12T02:41:39Z
2022-03-12T00:43:06Z,42.805,6.029,13.3005,4.60031,2470.577,2022-3-12T02:44:42Z
2022-03-12T00:46:09Z,42.805,6.029,13.3000,4.60033,2470.614,2022-3-12T02:47:45Z
2022-03-12T00:49:13Z,42.805,6.029,13.3000,4.60033,2470.577,2022-3-12T02:50:48Z
2022-03-12T00:52:16Z,42.805,6.029,13.3000,4.60033,2470.577,2022-3-12T02:53:51Z
2022-03-12T00:55:19Z,42.805,6.029,13.3006,4.60035,2470.614,2022-3-12T02:56:54Z
2022-03-12T00:58:22Z,42.805,6.029,13.3002,4.60032,2470.6,2022-3-12T02:59:57Z
2022-03-12T01:01:25Z,42.805,6.029,13.2997,4.60031,2470.577,2022-3-12T03:03:01Z
2022-03-12T01:04:28Z,42.805,6.029,13.3002,4.60033,2470.614,2022-3-12T03:06:04Z
2022-03-12T01:07:31Z,42.805,6.029,13.3002,4.60031,2470.577,2022-3-12T03:09:07Z
2022-03-12T01:10:34Z,42.805,6.029,13.3004,4.60032,2470.614,2022-3-12T03:12:10Z
2022-03-12T01:13:38Z,42.805,6.029,13.3000,4.60033,2470.614,2022-3-12T03:15:13Z
2022-03-12T01:16:41Z,42.805,6.029,13.2998,4.60032,2470.614,2022-3-12T03:18:16Z
2022-03-12T01:19:44Z,42.805,6.029,13.3001,4.60032,2470.6,2022-3-12T03:21:19Z
2022-03-12T01:22:47Z,42.805,6.029,13.3000,4.60032,2470.637,2022-3-12T03:24:22Z
2022-03-12T01:25:50Z,42.805,6.029,13.3001,4.60032,2470.586,2022-3-12T03:27:26Z
2022-03-12T01:28:53Z,42.805,6.029,13.3003,4.60034,2470.591,2022-3-12T03:30:29Z
2022-03-12T01:31:56Z,42.805,6.029,13.3000,4.60033,2470.614,2022-3-12T03:33:32Z
2022-03-12T01:34:59Z,42.805,6.029,13.3002,4.60033,2470.577,2022-3-12T03:36:35Z
2022-03-12T01:38:02Z,42.805,6.029,13.3004,4.60034,2470.614,2022-3-12T03:39:38Z
2022-03-12T01:41:06Z,42.805,6.029,13.3000,4.60033,2470.614,2022-3-12T03:42:41Z
2022-03-12T01:44:09Z,42.805,6.029,13.2998,4.60033,2470.61,2022-3-12T03:45:44Z
2022-03-12T01:47:12Z,42.805,6.029,13.3000,4.60034,2470.6,2022-3-12T03:48:47Z
2022-03-12T01:50:15Z,42.805,6.029,13.3002,4.60032,2470.614,2022-3-12T03:51:51Z
2022-03-12T01:53:18Z,42.805,6.029,13.3004,4.60033,2470.6,2022-3-12T03:54:54Z
2022-03-12T01:56:21Z,42.805,6.029,13.3002,4.60033,2470.624,2022-3-12T03:57:57Z
2022-03-12T01:59:24Z,42.805,6.029,13.2999,4.60033,2470.614,2022-3-12T04:01:00Z
2022-03-12T02:02:27Z,42.805,6.029,13.3001,4.60032,2470.6,2022-3-12T04:04:03Z
2022-03-12T02:05:31Z,42.805,6.029,13.2999,4.60032,2470.591,2022-3-12T04:07:06Z
2022-03-12T02:08:34Z,42.805,6.029,13.3002,4.60034,2470.624,2022-3-12T04:10:09Z
2022-03-12T02:11:37Z,42.805,6.029,13.3000,4.60033,2470.577,2022-3-12T04:13:12Z
2022-03-12T02:14:40Z,42.805,6.029,13.3003,4.60034,2470.614,2022-3-12T04:16:16Z
2022-03-12T02:17:43Z,42.805,6.029,13.3000,4.60035,2470.6,2022-3-12T04:19:19Z
2022-03-12T02:20:46Z,42.805,6.029,13.3003,4.60033,2470.637,2022-3-12T04:22:22Z
2022-03-12T02:23:49Z,42.805,6.029,13.2998,4.60033,2470.624,2022-3-12T04:25:25Z
2022-03-12T02:26:52Z,42.805,6.029,13.3002,4.60037,2470.624,2022-3-12T04:28:28Z
2022-03-12T02:29:56Z,42.805,6.029,13.3000,4.60036,2470.6,2022-3-12T04:31:31Z
2022-03-12T02:32:59Z,42.805,6.029,13.3000,4.60033,2470.624,2022-3-12T04:34:34Z
2022-03-12T02:36:02Z,42.805,6.029,13.2999,4.60033,2470.614,2022-3-12T04:37:37Z
2022-03-12T02:39:05Z,42.805,6.029,13.3000,4.60036,2470.6,2022-3-12T04:40:41Z
2022-03-12T02:42:08Z,42.805,6.029,13.2999,4.60034,2470.624,2022-3-12T04:43:44Z
2022-03-12T02:45:11Z,42.805,6.029,13.3001,4.60033,2470.614,2022-3-12T04:46:47Z
2022-03-12T02:48:14Z,42.805,6.029,13.3005,4.60031,2470.646,2022-3-12T04:49:50Z
2022-03-12T02:51:17Z,42.805,6.029,13.3000,4.60034,2470.6,2022-3-12T04:52:53Z
2022-03-12T02:54:21Z,42.805,6.029,13.3001,4.60033,2470.6,2022-3-12T04:55:56Z
2022-03-12T02:57:24Z,42.805,6.029,13.3001,4.60036,2470.624,2022-3-12T04:58:59Z
2022-03-12T03:00:27Z,42.805,6.029,13.3000,4.60035,2470.637,2022-3-12T05:02:02Z
2022-03-12T03:03:30Z,42.805,6.029,13.2996,4.60033,2470.614,2022-3-12T05:05:06Z
2022-03-12T03:06:33Z,42.805,6.029,13.3003,4.60033,2470.624,2022-3-12T05:08:09Z
2022-03-12T03:09:36Z,42.805,6.029,13.3000,4.60036,2470.637,2022-3-12T05:11:12Z
2022-03-12T03:12:39Z,42.805,6.029,13.3005,4.60033,2470.661,2022-3-12T05:14:15Z
2022-03-12T03:15:42Z,42.805,6.029,13.3001,4.60033,2470.637,2022-3-12T05:17:18Z
2022-03-12T03:18:46Z,42.805,6.029,13.3000,4.60033,2470.624,2022-3-12T05:20:21Z
2022-03-12T03:21:49Z,42.805,6.029,13.3001,4.60033,2470.646,2022-3-12T05:23:24Z
2022-03-12T03:24:52Z,42.805,6.029,13.3001,4.60033,2470.646,2022-3-12T05:26:27Z
2022-03-12T03:27:55Z,42.805,6.029,13.2999,4.60033,2470.637,2022-3-12T05:29:30Z
2022-03-12T03:30:58Z,42.805,6.029,13.3003,4.60034,2470.624,2022-3-12T05:32:34Z
2022-03-12T03:34:01Z,42.805,6.029,13.3000,4.60034,2470.61,2022-3-12T05:35:37Z
2022-03-12T03:37:04Z,42.805,6.029,13.2998,4.60033,2470.637,2022-3-12T05:38:40Z
2022-03-12T03:40:07Z,42.805,6.029,13.3003,4.60033,2470.614,2022-3-12T05:41:43Z
2022-03-12T03:43:10Z,42.805,6.029,13.3000,4.60034,2470.624,2022-3-12T05:44:46Z
2022-03-12T03:46:14Z,42.805,6.029,13.3002,4.60034,2470.624,2022-3-12T05:47:49Z
2022-03-12T03:49:17Z,42.805,6.029,13.3002,4.60033,2470.6,2022-3-12T05:50:52Z
2022-03-12T03:52:20Z,42.805,6.029,13.3000,4.60033,2470.646,2022-3-12T05:53:56Z
2022-03-12T03:55:23Z,42.805,6.029,13.3000,4.60033,2470.646,2022-3-12T05:56:59Z
2022-03-12T03:58:26Z,42.805,6.029,13.3003,4.60032,2470.646,2022-3-12T06:00:02Z
2022-03-12T04:01:29Z,42.805,6.029,13.3002,4.60034,2470.624,2022-3-12T06:03:05Z
2022-03-12T04:04:32Z,42.805,6.029,13.3001,4.60033,2470.637,2022-3-12T06:06:08Z
2022-03-12T04:07:35Z,42.805,6.029,13.3002,4.60034,2470.637,2022-3-12T06:09:11Z
2022-03-12T04:10:39Z,42.805,6.029,13.3002,4.60034,2470.646,2022-3-12T06:12:14Z
2022-03-12T04:13:42Z,42.805,6.029,13.3000,4.60035,2470.646,2022-3-12T06:15:17Z
2022-03-12T04:16:45Z,42.805,6.029,13.3001,4.60035,2470.684,2022-3-12T06:18:20Z
2022-03-12T04:19:48Z,42.805,6.029,13.3000,4.60034,2470.646,2022-3-12T06:21:24Z
2022-03-12T04:22:51Z,42.805,6.029,13.3000,4.60034,2470.661,2022-3-12T06:24:27Z
2022-03-12T04:25:54Z,42.805,6.029,13.3000,4.60033,2470.624,2022-3-12T06:27:30Z
2022-03-12T04:28:57Z,42.805,6.029,13.3001,4.60034,2470.661,2022-3-12T06:30:33Z
2022-03-12T04:32:00Z,42.805,6.029,13.3002,4.60036,2470.637,2022-3-12T06:33:36Z
2022-03-12T04:35:04Z,42.805,6.029,13.3000,4.60033,2470.646,2022-3-12T06:36:39Z
2022-03-12T04:38:07Z,42.805,6.029,13.3003,4.60033,2470.6,2022-3-12T06:39:42Z
2022-03-12T04:41:10Z,42.805,6.029,13.3004,4.60034,2470.624,2022-3-12T06:42:45Z
2022-03-12T04:44:13Z,42.805,6.029,13.3000,4.60034,2470.624,2022-3-12T06:45:49Z
2022-03-12T04:47:16Z,42.805,6.029,13.3004,4.60036,2470.614,2022-3-12T06:48:52Z
2022-03-12T04:50:19Z,42.805,6.029,13.2999,4.60036,2470.637,2022-3-12T06:51:55Z
2022-03-12T04:53:22Z,42.805,6.029,13.3003,4.60036,2470.661,2022-3-12T06:54:58Z
2022-03-12T04:56:25Z,42.805,6.029,13.3001,4.60034,2470.646,2022-3-12T06:58:01Z
2022-03-12T04:59:29Z,42.805,6.029,13.3000,4.60034,2470.624,2022-3-12T07:01:04Z
2022-03-12T05:02:32Z,42.805,6.029,13.3003,4.60033,2470.624,2022-3-12T07:04:07Z
2022-03-12T05:05:35Z,42.805,6.029,13.3004,4.60033,2470.624,2022-3-12T07:07:10Z
2022-03-12T05:08:38Z,42.805,6.029,13.3000,4.60035,2470.624,2022-3-12T07:10:14Z
2022-03-12T05:11:41Z,42.805,6.029,13.3004,4.60033,2470.624,2022-3-12T07:13:17Z
2022-03-12T05:14:44Z,42.805,6.029,13.3004,4.60033,2470.624,2022-3-12T07:16:20Z
2022-03-12T05:17:47Z,42.805,6.029,13.3001,4.60033,2470.624,2022-3-12T07:19:23Z
2022-03-12T05:20:50Z,42.805,6.029,13.3003,4.60034,2470.637,2022-3-12T07:22:26Z
2022-03-12T05:23:54Z,42.805,6.029,13.3000,4.60034,2470.624,2022-3-12T07:25:29Z
2022-03-12T05:26:57Z,42.805,6.029,13.3000,4.60034,2470.624,2022-3-12T07:28:32Z
2022-03-12T05:30:00Z,42.805,6.029,13.3002,4.60034,2470.624,2022-3-12T07:31:35Z
2022-03-12T05:33:03Z,42.805,6.029,13.3000,4.60033,2470.6,2022-3-12T07:34:39Z
2022-03-12T05:36:06Z,42.805,6.029,13.3005,4.60033,2470.646,2022-3-12T07:37:42Z
2022-03-12T05:39:09Z,42.805,6.029,13.2999,4.60033,2470.624,2022-3-12T07:40:45Z
2022-03-12T05:42:12Z,42.805,6.029,13.3004,4.60035,2470.6,2022-3-12T07:43:48Z
2022-03-12T05:45:15Z,42.805,6.029,13.3004,4.60035,2470.637,2022-3-12T07:46:51Z
2022-03-12T05:48:19Z,42.805,6.029,13.3003,4.60033,2470.624,2022-3-12T07:49:54Z
2022-03-12T05:51:22Z,42.805,6.029,13.3003,4.60034,2470.646,2022-3-12T07:52:57Z
2022-03-12T05:54:25Z,42.805,6.029,13.3004,4.60035,2470.624,2022-3-12T07:56:00Z
2022-03-12T05:57:28Z,42.805,6.029,13.3000,4.60034,2470.553,2022-3-12T07:59:04Z
2022-03-12T06:00:31Z,42.805,6.029,13.2999,4.60041,2470.637,2022-3-12T08:02:07Z
2022-03-12T06:03:34Z,42.805,6.029,13.3000,4.60035,2470.646,2022-3-12T08:05:10Z
2022-03-12T06:06:37Z,42.805,6.029,13.3002,4.60034,2470.614,2022-3-12T08:08:13Z
2022-03-12T06:09:40Z,42.805,6.029,13.3004,4.60033,2470.614,2022-3-12T08:11:16Z
2022-03-12T06:12:44Z,42.805,6.029,13.2998,4.60034,2470.6,2022-3-12T08:14:19Z
2022-03-12T06:15:47Z,42.805,6.029,13.2998,4.60035,2470.614,2022-3-12T08:17:22Z
2022-03-12T06:18:50Z,42.805,6.029,13.2998,4.60033,2470.624,2022-3-12T08:20:25Z
2022-03-12T06:21:53Z,42.805,6.029,13.3004,4.60033,2470.646,2022-3-12T08:23:29Z
2022-03-12T06:24:56Z,42.805,6.029,13.2999,4.60033,2470.6,2022-3-12T08:26:32Z
2022-03-12T06:27:59Z,42.805,6.029,13.3000,4.60034,2470.646,2022-3-12T08:29:35Z
2022-03-12T06:31:02Z,42.805,6.029,13.2998,4.60035,2470.6,2022-3-12T08:32:38Z
2022-03-12T06:34:05Z,42.805,6.029,13.3004,4.60035,2470.637,2022-3-12T08:35:41Z
2022-03-12T06:37:09Z,42.805,6.029,13.3004,4.60035,2470.591,2022-3-12T08:38:44Z
2022-03-12T06:40:12Z,42.805,6.029,13.3000,4.60034,2470.6,2022-3-12T08:41:47Z
2022-03-12T06:43:15Z,42.805,6.029,13.3001,4.60033,2470.637,2022-3-12T08:44:50Z
2022-03-12T06:46:18Z,42.805,6.029,13.3004,4.60035,2470.624,2022-3-12T08:47:54Z
2022-03-12T06:49:21Z,42.805,6.029,13.3003,4.60032,2470.624,2022-3-12T08:50:57Z
2022-03-12T06:52:24Z,42.805,6.029,13.3002,4.60033,2470.614,2022-3-12T08:54:00Z
2022-03-12T06:55:27Z,42.805,6.029,13.3004,4.60033,2470.6,2022-3-12T08:57:03Z
2022-03-12T06:58:30Z,42.805,6.029,13.3001,4.60033,2470.624,2022-3-12T09:00:06Z
2022-03-12T07:01:33Z,42.805,6.029,13.3005,4.60033,2470.6,2022-3-12T09:03:09Z
2022-03-12T07:04:37Z,42.805,6.029,13.3000,4.60036,2470.6,2022-3-12T09:06:12Z
2022-03-12T07:07:40Z,42.805,6.029,13.3003,4.60033,2470.624,2022-3-12T09:09:15Z
2022-03-12T07:10:43Z,42.805,6.029,13.3001,4.60035,2470.6,2022-3-12T09:12:18Z
2022-03-12T07:13:46Z,42.805,6.029,13.2997,4.60035,2470.6,2022-3-12T09:15:22Z
2022-03-12T07:16:49Z,42.805,6.029,13.3000,4.60035,2470.614,2022-3-12T09:18:25Z
2022-03-12T07:19:52Z,42.805,6.029,13.3002,4.60033,2470.614,2022-3-12T09:21:28Z
2022-03-12T07:22:55Z,42.805,6.029,13.2998,4.60035,2470.6,2022-3-12T09:24:31Z
2022-03-12T07:25:58Z,42.805,6.029,13.3000,4.60034,2470.6,2022-3-12T09:27:34Z
2022-03-12T07:29:02Z,42.805,6.029,13.3003,4.60034,2470.6,2022-3-12T09:30:37Z
2022-03-12T07:32:05Z,42.805,6.029,13.3001,4.60033,2470.614,2022-3-12T09:33:40Z
2022-03-12T07:35:08Z,42.805,6.029,13.2999,4.60033,2470.577,2022-3-12T09:36:43Z
2022-03-12T07:38:11Z,42.805,6.029,13.3005,4.60033,2470.6,2022-3-12T09:39:47Z
2022-03-12T07:41:14Z,42.805,6.029,13.3001,4.60033,2470.6,2022-3-12T09:42:50Z
2022-03-12T07:44:17Z,42.805,6.029,13.3005,4.60033,2470.624,2022-3-12T09:45:53Z
2022-03-12T07:47:20Z,42.805,6.029,13.3004,4.60033,2470.614,2022-3-12T09:48:56Z
2022-03-12T07:50:23Z,42.805,6.029,13.2999,4.60032,2470.577,2022-3-12T09:51:59Z
2022-03-12T07:53:27Z,42.805,6.029,13.3002,4.60033,2470.591,2022-3-12T09:55:02Z
2022-03-12T07:56:30Z,42.805,6.029,13.3001,4.60033,2470.577,2022-3-12T09:58:05Z
2022-03-12T07:59:33Z,42.805,6.029,13.3004,4.60034,2470.591,2022-3-12T10:01:08Z
2022-03-12T08:02:36Z,42.805,6.029,13.3004,4.60033,2470.591,2022-3-12T10:04:12Z
2022-03-12T08:05:39Z,42.805,6.029,13.3005,4.60033,2470.6,2022-3-12T10:07:15Z
2022-03-12T08:08:42Z,42.805,6.029,13.3006,4.60033,2470.577,2022-3-12T10:10:18Z
2022-03-12T08:11:45Z,42.805,6.029,13.3004,4.60032,2470.6,2022-3-12T10:13:21Z
2022-03-12T08:14:48Z,42.805,6.029,13.3004,4.60034,2470.577,2022-3-12T10:16:24Z
2022-03-12T08:17:52Z,42.805,6.029,13.3001,4.60033,2470.6,2022-3-12T10:19:27Z
2022-03-12T08:20:55Z,42.805,6.029,13.3003,4.60033,2470.591,2022-3-12T10:22:30Z
2022-03-12T08:23:58Z,42.805,6.029,13.3004,4.60033,2470.577,2022-3-12T10:25:33Z
2022-03-12T08:27:01Z,42.805,6.029,13.2998,4.60033,2470.553,2022-3-12T10:28:37Z
2022-03-12T08:30:04Z,42.805,6.029,13.3001,4.60032,2470.577,2022-3-12T10:31:40Z
2022-03-12T08:33:07Z,42.805,6.029,13.3004,4.60033,2470.624,2022-3-12T10:34:43Z
2022-03-12T08:36:10Z,42.805,6.029,13.2998,4.60034,2470.553,2022-3-12T10:37:46Z
2022-03-12T08:39:14Z,42.805,6.029,13.3003,4.60032,2470.614,2022-3-12T10:40:49Z
2022-03-12T08:42:17Z,42.805,6.029,13.3000,4.60033,2470.614,2022-3-12T10:43:52Z
2022-03-12T08:45:20Z,42.805,6.029,13.2999,4.60034,2470.591,2022-3-12T10:46:55Z
2022-03-12T08:48:23Z,42.805,6.029,13.2999,4.60033,2470.567,2022-3-12T10:49:58Z
2022-03-12T08:51:26Z,42.805,6.029,13.3000,4.60032,2470.553,2022-3-12T10:53:02Z
2022-03-12T08:54:29Z,42.805,6.029,13.3003,4.60032,2470.591,2022-3-12T10:56:05Z
2022-03-12T08:57:32Z,42.805,6.029,13.3005,4.60032,2470.553,2022-3-12T10:59:08Z
2022-03-12T09:00:35Z,42.805,6.029,13.3006,4.60035,2470.624,2022-3-12T11:02:11Z
2022-03-12T09:03:39Z,42.805,6.029,13.2997,4.60032,2470.614,2022-3-12T11:05:14Z
2022-03-12T09:06:42Z,42.805,6.029,13.3002,4.60033,2470.553,2022-3-12T11:08:17Z
2022-03-12T09:09:45Z,42.805,6.029,13.3002,4.60034,2470.591,2022-3-12T11:11:20Z
2022-03-12T09:12:48Z,42.805,6.029,13.3001,4.60036,2470.553,2022-3-12T11:14:24Z
2022-03-12T09:15:51Z,42.805,6.029,13.3000,4.60034,2470.6,2022-3-12T11:17:27Z
2022-03-12T09:18:54Z,42.805,6.029,13.3000,4.60032,2470.577,2022-3-12T11:20:30Z
2022-03-12T09:21:57Z,42.805,6.029,13.3006,4.60035,2470.577,2022-3-12T11:23:33Z
2022-03-12T09:25:00Z,42.805,6.029,13.3000,4.60033,2470.591,2022-3-12T11:26:36Z
2022-03-12T09:28:04Z,42.805,6.029,13.3000,4.60033,2470.6,2022-3-12T11:29:39Z
2022-03-12T09:31:07Z,42.805,6.029,13.3004,4.60035,2470.591,2022-3-12T11:32:42Z
2022-03-12T09:34:10Z,42.805,6.029,13.3000,4.60034,2470.591,2022-3-12T11:35:45Z
2022-03-12T09:37:13Z,42.805,6.029,13.3002,4.60036,2470.577,2022-3-12T11:38:49Z
2022-03-12T09:40:16Z,42.805,6.029,13.3002,4.60034,2470.577,2022-3-12T11:41:52Z
2022-03-12T09:43:19Z,42.805,6.029,13.3000,4.60033,2470.577,2022-3-12T11:44:55Z
2022-03-12T09:46:22Z,42.805,6.029,13.3002,4.60034,2470.553,2022-3-12T11:47:58Z
2022-03-12T09:49:25Z,42.805,6.029,13.3001,4.60032,2470.591,2022-3-12T11:51:01Z
2022-03-12T09:52:29Z,42.805,6.029,13.3004,4.60034,2470.577,2022-3-12T11:54:04Z
2022-03-12T09:55:32Z,42.805,6.029,13.3001,4.60035,2470.591,2022-3-12T11:57:07Z
2022-03-12T09:58:35Z,42.805,6.029,13.3005,4.60033,2470.591,2022-3-12T12:00:10Z
2022-03-12T10:01:38Z,42.805,6.029,13.3000,4.60033,2470.553,2022-3-12T12:03:14Z
2022-03-12T10:04:41Z,42.805,6.029,13.3001,4.60033,2470.567,2022-3-12T12:06:17Z
2022-03-12T10:07:44Z,42.805,6.029,13.3004,4.60033,2470.614,2022-3-12T12:09:20Z
2022-03-12T10:10:47Z,42.805,6.029,13.3002,4.60032,2470.591,2022-3-12T12:12:23Z
2022-03-12T10:13:50Z,42.805,6.029,13.2998,4.60032,2470.553,2022-3-12T12:15:26Z
2022-03-12T10:16:54Z,42.805,6.029,13.3000,4.60038,2470.591,2022-3-12T12:18:29Z
2022-03-12T10:19:57Z,42.805,6.029,13.3001,4.60035,2470.577,2022-3-12T12:21:32Z
2022-03-12T10:23:00Z,42.805,6.029,13.3000,4.60034,2470.53,2022-3-12T12:24:35Z
2022-03-12T10:26:03Z,42.805,6.029,13.3004,4.60035,2470.553,2022-3-12T12:27:39Z
2022-03-12T10:29:06Z,42.805,6.029,13.3000,4.60033,2470.553,2022-3-12T12:30:42Z
2022-03-12T10:32:09Z,42.805,6.029,13.3003,4.60034,2470.591,2022-3-12T12:33:45Z
2022-03-12T10:35:12Z,42.805,6.029,13.3001,4.60033,2470.53,2022-3-12T12:36:48Z
2022-03-12T10:38:15Z,42.805,6.029,13.3004,4.60033,2470.577,2022-3-12T12:39:51Z
2022-03-12T10:41:19Z,42.805,6.029,13.3000,4.60033,2470.544,2022-3-12T12:42:54Z
2022-03-12T10:44:22Z,42.805,6.029,13.3004,4.60036,2470.577,2022-3-12T12:45:57Z
2022-03-12T10:47:25Z,42.805,6.029,13.3006,4.60033,2470.577,2022-3-12T12:49:00Z
2022-03-12T10:50:28Z,42.805,6.029,13.3000,4.60035,2470.591,2022-3-12T12:52:04Z
2022-03-12T10:53:31Z,42.805,6.029,13.3004,4.60033,2470.577,2022-3-12T12:55:07Z
2022-03-12T10:56:34Z,42.805,6.029,13.3001,4.60033,2470.591,2022-3-12T12:58:10Z
2022-03-12T10:59:37Z,42.805,6.029,13.2998,4.60033,2470.553,2022-3-12T13:01:13Z
2022-03-12T11:02:40Z,42.805,6.029,13.3004,4.60034,2470.577,2022-3-12T13:04:16Z
2022-03-12T11:05:44Z,42.805,6.029,13.3003,4.60032,2470.591,2022-3-12T13:07:19Z
2022-03-12T11:08:47Z,42.805,6.029,13.2998,4.60033,2470.567,2022-3-12T13:10:22Z
2022-03-12T11:11:50Z,42.805,6.029,13.3004,4.60033,2470.577,2022-3-12T13:13:25Z
2022-03-12T11:14:53Z,42.805,6.029,13.3000,4.60032,2470.553,2022-3-12T13:16:29Z
2022-03-12T11:17:56Z,42.805,6.029,13.3000,4.60034,2470.553,2022-3-12T13:19:32Z
2022-03-12T11:20:59Z,42.805,6.029,13.3000,4.60033,2470.577,2022-3-12T13:22:35Z
2022-03-12T11:24:02Z,42.805,6.029,13.3002,4.60033,2470.553,2022-3-12T13:25:38Z
2022-03-12T11:27:05Z,42.805,6.029,13.2999,4.60033,2470.577,2022-3-12T13:28:41Z
2022-03-12T11:30:09Z,42.805,6.029,13.3001,4.60034,2470.553,2022-3-12T13:31:44Z
2022-03-12T11:33:12Z,42.805,6.029,13.3003,4.60033,2470.53,2022-3-12T13:34:47Z
2022-03-12T11:36:15Z,42.805,6.029,13.3003,4.60034,2470.577,2022-3-12T13:37:51Z
2022-03-12T11:39:18Z,42.805,6.029,13.3003,4.60033,2470.553,2022-3-12T13:40:54Z
2022-03-12T11:42:21Z,42.805,6.029,13.3002,4.60034,2470.577,2022-3-12T13:43:57Z
2022-03-12T11:45:24Z,42.805,6.029,13.3003,4.60035,2470.591,2022-3-12T13:47:00Z
2022-03-12T11:48:27Z,42.805,6.029,13.3003,4.60034,2470.553,2022-3-12T13:50:03Z
2022-03-12T11:51:31Z,42.805,6.029,13.3006,4.60038,2470.53,2022-3-12T13:53:06Z
2022-03-12T11:54:34Z,42.805,6.029,13.3000,4.60034,2470.567,2022-3-12T13:56:09Z
2022-03-12T11:57:37Z,42.805,6.029,13.3006,4.60034,2470.567,2022-3-12T13:59:12Z
2022-03-12T12:00:40Z,42.805,6.029,13.3000,4.60035,2470.577,2022-3-12T14:02:16Z
2022-03-12T12:03:43Z,42.805,6.029,13.3000,4.60036,2470.614,2022-3-12T14:05:19Z
2022-03-12T12:06:46Z,42.805,6.029,13.3001,4.60034,2470.591,2022-3-12T14:08:22Z
2022-03-12T12:09:49Z,42.805,6.029,13.3003,4.60035,2470.577,2022-3-12T14:11:25Z
2022-03-12T12:12:52Z,42.805,6.029,13.2998,4.60033,2470.553,2022-3-12T14:14:28Z
2022-03-12T12:15:56Z,42.805,6.029,13.3000,4.60033,2470.553,2022-3-12T14:17:31Z
2022-03-12T12:18:59Z,42.805,6.029,13.3000,4.60033,2470.6,2022-3-12T14:20:34Z
2022-03-12T12:22:02Z,42.805,6.029,13.3002,4.60034,2470.577,2022-3-12T14:23:37Z
2022-03-12T12:25:05Z,42.805,6.029,13.3000,4.60034,2470.544,2022-3-12T14:26:41Z
2022-03-12T12:28:08Z,42.805,6.029,13.3000,4.60033,2470.577,2022-3-12T14:29:44Z
2022-03-12T12:31:11Z,42.805,6.029,13.3004,4.60034,2470.53,2022-3-12T14:32:47Z
2022-03-12T12:34:14Z,42.805,6.029,13.3004,4.60033,2470.553,2022-3-12T14:35:50Z
2022-03-12T12:37:17Z,42.805,6.029,13.2999,4.60036,2470.553,2022-3-12T14:38:53Z
2022-03-12T12:40:21Z,42.805,6.029,13.3003,4.60031,2470.53,2022-3-12T14:41:56Z
2022-03-12T12:43:24Z,42.805,6.029,13.3002,4.60033,2470.567,2022-3-12T14:44:59Z
2022-03-12T12:46:27Z,42.805,6.029,13.2998,4.60035,2470.591,2022-3-12T14:48:02Z
2022-03-12T12:49:30Z,42.805,6.029,13.3005,4.60033,2470.553,2022-3-12T14:51:06Z
2022-03-12T12:52:33Z,42.805,6.029,13.3002,4.60033,2470.567,2022-3-12T14:54:09Z
2022-03-12T12:55:36Z,42.805,6.029,13.3002,4.60034,2470.567,2022-3-12T14:57:12Z
2022-03-12T12:58:39Z,42.805,6.029,13.2997,4.60033,2470.553,2022-3-12T15:00:15Z
2022-03-12T13:01:42Z,42.805,6.029,13.3005,4.60033,2470.53,2022-3-12T15:03:18Z
2022-03-12T13:04:46Z,42.805,6.029,13.3002,4.60033,2470.577,2022-3-12T15:06:21Z
2022-03-12T13:07:49Z,42.805,6.029,13.2999,4.60032,2470.567,2022-3-12T15:09:24Z
2022-03-12T13:10:52Z,42.805,6.029,13.3002,4.60033,2470.53,2022-3-12T15:12:27Z
2022-03-12T13:13:55Z,42.805,6.029,13.3006,4.60032,2470.53,2022-3-12T15:15:31Z
2022-03-12T13:16:58Z,42.805,6.029,13.3000,4.60033,2470.577,2022-3-12T15:18:34Z
2022-03-12T13:20:01Z,42.805,6.029,13.3002,4.60033,2470.553,2022-3-12T15:21:37Z
2022-03-12T13:23:04Z,42.805,6.029,13.3002,4.60032,2470.553,2022-3-12T15:24:40Z
2022-03-12T13:26:07Z,42.805,6.029,13.3004,4.60032,2470.567,2022-3-12T15:27:43Z
2022-03-12T13:29:11Z,42.805,6.029,13.3000,4.60033,2470.553,2022-3-12T15:30:46Z
2022-03-12T13:32:14Z,42.805,6.029,13.3002,4.60033,2470.553,2022-3-12T15:33:49Z
2022-03-12T13:35:17Z,42.805,6.029,13.3004,4.60033,2470.553,2022-3-12T15:36:53Z
2022-03-12T13:38:20Z,42.805,6.029,13.2998,4.60034,2470.53,2022-3-12T15:39:56Z
2022-03-12T13:41:23Z,42.805,6.029,13.3000,4.60033,2470.553,2022-3-12T15:42:59Z
2022-03-12T13:44:26Z,42.805,6.029,13.3002,4.60033,2470.553,2022-3-12T15:46:02Z
2022-03-12T13:47:29Z,42.805,6.029,13.2999,4.60033,2470.577,2022-3-12T15:49:05Z
2022-03-12T13:50:32Z,42.805,6.029,13.3000,4.60034,2470.53,2022-3-12T15:52:08Z
2022-03-12T13:53:36Z,42.805,6.029,13.3004,4.60036,2470.577,2022-3-12T15:55:11Z
2022-03-12T13:56:39Z,42.805,6.029,13.3004,4.60035,2470.553,2022-3-12T15:58:14Z
2022-03-12T13:59:42Z,42.805,6.029,13.3000,4.60036,2470.567,2022-3-12T16:01:18Z
2022-03-12T14:02:45Z,42.805,6.029,13.3006,4.60033,2470.553,2022-3-12T16:04:21Z
2022-03-12T14:05:48Z,42.805,6.029,13.2998,4.60036,2470.614,2022-3-12T16:07:24Z
2022-03-12T14:08:51Z,42.805,6.029,13.3002,4.60034,2470.567,2022-3-12T16:10:27Z
2022-03-12T14:11:54Z,42.805,6.029,13.3003,4.60038,2470.591,2022-3-12T16:13:30Z
2022-03-12T14:14:58Z,42.805,6.029,13.3003,4.60034,2470.553,2022-3-12T16:16:33Z
2022-03-12T14:18:01Z,42.805,6.029,13.3004,4.60034,2470.591,2022-3-12T16:19:36Z
2022-03-12T14:21:04Z,42.805,6.029,13.3000,4.60035,2470.553,2022-3-12T16:22:39Z
2022-03-12T14:24:07Z,42.805,6.029,13.3001,4.60033,2470.6,2022-3-12T16:25:43Z
2022-03-12T14:27:10Z,42.805,6.029,13.2998,4.60035,2470.577,2022-3-12T16:28:46Z
2022-03-12T14:30:13Z,42.805,6.029,13.3002,4.60033,2470.577,2022-3-12T16:31:49Z
2022-03-12T14:33:16Z,42.805,6.029,13.3002,4.60033,2470.553,2022-3-12T16:34:52Z
2022-03-12T14:36:19Z,42.805,6.029,13.3006,4.60035,2470.61,2022-3-12T16:37:55Z
2022-03-12T14:39:23Z,42.805,6.029,13.2999,4.60035,2470.567,2022-3-12T16:40:58Z
2022-03-12T14:42:26Z,42.805,6.029,13.3002,4.60033,2470.577,2022-3-12T16:44:01Z
2022-03-12T14:45:29Z,42.805,6.029,13.3004,4.60037,2470.577,2022-3-12T16:47:04Z
2022-03-12T14:48:32Z,42.805,6.029,13.3005,4.60034,2470.553,2022-3-12T16:50:08Z
2022-03-12T14:51:35Z,42.805,6.029,13.3001,4.60034,2470.577,2022-3-12T16:53:11Z
2022-03-12T14:54:38Z,42.805,6.029,13.3007,4.60036,2470.577,2022-3-12T16:56:14Z
2022-03-12T14:57:41Z,42.805,6.029,13.3000,4.60034,2470.577,2022-3-12T16:59:17Z
2022-03-12T15:00:44Z,42.805,6.029,13.3003,4.60036,2470.577,2022-3-12T17:02:20Z
2022-03-12T15:03:48Z,42.805,6.029,13.3004,4.60033,2470.6,2022-3-12T17:05:23Z
2022-03-12T15:06:51Z,42.805,6.029,13.3000,4.60033,2470.577,2022-3-12T17:08:26Z
2022-03-12T15:09:54Z,42.805,6.029,13.3004,4.60033,2470.591,2022-3-12T17:11:29Z
2022-03-12T15:12:57Z,42.805,6.029,13.3004,4.60035,2470.591,2022-3-12T17:14:33Z